Flag for Germany Weather past 2 weeks in Weißenfels, Saxony-Anhalt, Germany

Now
53 °F

Clear.


Feels Like: 52 °F
Forecast: 49 / 71 °F
Wind: 6 mph from West

Location: Leipzig-Schkeuditz

Current Time: Jul 30, 2015 at 2:54:25 AM

Latest Report: Jul 30, 2015 at 2:00 AM


Visibility: 37 mi

Pressure: 29.85 "Hg

Humidity: 69%

Dew point: 44 °F

Location of WeißenfelsLocation

Historic Weather in Weißenfels — Graph

°F

Weißenfels temperature yesterday

Maximum temperature yesterday: 71 °F (at 4:00 PM)
Minimum temperature yesterday: 55 °F (at 10:00 PM)
Average temperature yesterday: 62 °F

Past Weeks' High & Low Weather Summary

 TemperatureHumidityPressure
High94 °F (Jul 17, 6:00 PM)94% (Jul 15, 3:00 AM)30.12 "Hg (Jul 15, 3:00 AM)
Low54 °F (Jul 30, 1:00 AM)20% (Jul 17, 6:00 PM)29.59 "Hg (Jul 27, 2:00 PM)
Average70 °F62%29.87 "Hg
* Reported Jul 15 1:00 AM — Jul 30 1:00 AM, Weißenfels, Weather by CustomWeather, © 2015

Note: Actual official high and low records may vary slightly from our data, if they occured in-between our weather recording intervals... More about our weather records

Advertising

Weißenfels weather history for previous 24 hours

 ConditionsComfort  
Time TempWeatherWind HumidityBarometerVisibility
1:00 AM
Thu, Jul 30
54 °FClear.7 mph68%29.84 "Hg37 mi
10:00 PM
Wed, Jul 29
55 °FPassing clouds.3 mph65%29.81 "Hg37 mi
9:00 PM59 °FPassing clouds.3 mph56%29.79 "Hg37 mi
8:00 PM62 °FPassing clouds.8 mph47%29.77 "Hg37 mi
7:00 PM63 °FPartly sunny.9 mph44%29.76 "Hg43 mi
6:00 PM61 °FPartly sunny.12 mph51%29.76 "Hg43 mi
5:00 PM70 °FPartly sunny.10 mph33%29.70 "Hg43 mi
4:00 PM71 °FPartly sunny.9 mph30%29.70 "Hg43 mi
3:00 PM70 °FPartly sunny.10 mph32%29.70 "Hg43 mi
2:00 PM68 °FPartly sunny.9 mph39%29.72 "Hg43 mi
1:00 PM67 °FPartly sunny.8 mph42%29.72 "Hg37 mi
12:00 PM67 °FPartly sunny.12 mph41%29.73 "Hg34 mi
10:00 AM61 °FOvercast.6 mph62%29.77 "Hg31 mi
9:00 AM60 °FOvercast.7 mph62%29.78 "Hg31 mi
8:00 AM59 °FPartly sunny.8 mph61%29.78 "Hg31 mi
7:00 AM57 °FPassing clouds.6 mph64%29.78 "Hg31 mi
6:00 AM56 °FPassing clouds.7 mph67%29.78 "Hg31 mi
4:00 AM60 °FOvercast.5 mph62%29.78 "Hg31 mi
3:00 AM60 °FOvercast.5 mph63%29.77 "Hg31 mi
2:00 AM60 °FPassing clouds.6 mph62%29.77 "Hg31 mi
Weather by CustomWeather, © 2015

See weather overviewHow to use our weather pages